Location: Writing-on-Stone Provincial Park
(49.0825°N, 111.6163°W)
Time: 17:54:47
(UTC-06:00)

Amateur Radio Satellites - All Passes

Search period start: 24 April 2014 17:24
Search period end: 25 April 2014 17:24
Location: Writing-on-Stone Provincial Park, 49.0825°N, 111.6163°W

Satellite Date Start Highest point End Downlink Frequencies (MHz)
Time Altitude Azimuth
TMSAT-1 24 Apr 17:26:06 17:29:07 15° 273° (W) 17:32:09 436.925 FM
AO-7 24 Apr 17:27:08 17:35:15 58° 257° (WSW) 17:43:26 29.400 - 29.500 MHz
JAS-2 24 Apr 17:30:07 17:31:05 11° 50° (NE) 17:32:03 435.800 - 435.900 CW/SSB, 435.910 FM
Uosat F 24 Apr 17:37:09 17:41:19 26° 266° (W) 17:45:30 435.120 FM
ISS 24 Apr 17:44:26 17:47:45 53° 4° (N) 17:51:04 145.800 FM
Hamsat 24 Apr 18:15:51 18:19:53 45° 70° (ENE) 18:24:00 145.90 MHz
Saudisat 1A 24 Apr 18:18:57 18:23:21 57° 46° (NE) 18:27:41 436.775 MHz
OPAL 24 Apr 18:45:26 18:47:35 13° 312° (NW) 18:49:45 ?
JAS-1B 24 Apr 18:47:07 18:47:53 10° 276° (W) 18:48:39 435.800 - 435.900 CW/SSB
SO-50 24 Apr 18:48:47 18:50:44 12° 350° (N) 18:52:42 436.795 FM
UOSAT-12 24 Apr 18:55:07 18:59:18 33° 323° (NW) 19:03:33 437.025 FM, 437.400 FM
RS-15 24 Apr 18:56:44 18:58:31 11° 269° (W) 19:00:18 29.354 - 29.394 USB, Beacon 29.352 USB
SO-67 24 Apr 19:01:51 19:04:44 24° 67° (ENE) 19:07:38 435.3500 MHz FM
JAS-2 24 Apr 19:09:51 19:15:13 59° 70° (ENE) 19:20:19 435.800 - 435.900 CW/SSB, 435.910 FM
ISS 24 Apr 19:21:13 19:24:36 73° 204° (SSW) 19:27:58 145.800 FM
AO-7 24 Apr 19:27:01 19:29:56 12° 279° (W) 19:32:52 29.400 - 29.500 MHz
HO-68 24 Apr 19:36:07 19:41:06 21° 48° (NE) 19:46:06 435.675 MHz FM
STRAND 1 24 Apr 19:51:57 19:56:51 44° 99° (E) 20:01:43 ?
Hamsat 24 Apr 19:52:55 19:56:07 21° 269° (W) 19:59:22 145.90 MHz
Saudisat 1A 24 Apr 19:59:11 20:02:37 22° 245° (WSW) 20:06:01 436.775 MHz
SO-50 24 Apr 20:30:51 20:33:16 14° 16° (NNE) 20:35:42 436.795 FM
MaSat-1 24 Apr 20:34:29 20:35:50 13° 111° (ESE) 20:37:09 437.345 MHz
SO-67 24 Apr 20:34:51 20:37:50 26° 265° (W) 20:40:50 435.3500 MHz FM
UOSAT-12 24 Apr 20:38:25 20:40:52 14° 347° (NNW) 20:43:20 437.025 FM, 437.400 FM
JAS-2 24 Apr 20:56:39 21:00:46 21° 268° (W) 21:04:44 435.800 - 435.900 CW/SSB, 435.910 FM
ISS 24 Apr 20:58:40 21:00:53 17° 222° (SW) 21:03:06 145.800 FM
HO-68 24 Apr 21:20:39 21:27:46 77° 69° (ENE) 21:34:57 435.675 MHz FM
STRAND 1 24 Apr 21:31:30 21:35:53 30° 298° (WNW) 21:40:16 ?
Oscar 11 24 Apr 21:46:08 21:50:13 44° 69° (ENE) 21:54:21 145.825 FM, Beacon 2401.500 USB
FUNcube-1 24 Apr 21:54:52 21:57:52 20° 62° (ENE) 22:00:52 145.950 - 145.970 MHz USB
SO-50 24 Apr 22:10:53 22:15:09 35° 39° (NE) 22:19:27 436.795 FM
MaSat-1 24 Apr 22:11:46 22:14:00 25° 307° (NW) 22:16:08 437.345 MHz
UOSAT-12 24 Apr 22:20:39 22:22:59 14° 12° (NNE) 22:25:20 437.025 FM, 437.400 FM
HO-68 24 Apr 23:10:36 23:16:13 25° 269° (W) 23:21:53 435.675 MHz FM
Sapphire 24 Apr 23:17:31 23:21:21 20° 107° (ESE) 23:25:11 437.095 MHz 1200 baud AX-25 AFSK
Oscar 11 24 Apr 23:23:15 23:26:38 22° 268° (W) 23:30:02 145.825 FM, Beacon 2401.500 USB
FUNcube-1 24 Apr 23:29:57 23:33:59 49° 260° (W) 23:38:03 145.950 - 145.970 MHz USB
SO-50 24 Apr 23:51:25 23:55:51 45° 239° (WSW) 00:00:19 436.795 FM
PCSat 25 Apr 00:00:10 00:05:17 44° 116° (ESE) 00:10:25 145.825 MHz
UOSAT-12 25 Apr 00:00:27 00:04:38 30° 35° (NE) 00:08:48 437.025 FM, 437.400 FM
Sapphire 25 Apr 00:58:46 01:04:11 77° 306° (NW) 01:09:39 437.095 MHz 1200 baud AX-25 AFSK
OPAL 25 Apr 01:10:04 01:12:00 12° 47° (NE) 01:13:55 ?
UOSAT-12 25 Apr 01:40:27 01:45:07 60° 236° (SW) 01:49:44 437.025 FM, 437.400 FM
KITSAT 1 25 Apr 01:43:34 01:50:21 31° 108° (ESE) 01:57:10 435.175 FM
PCSat 25 Apr 01:43:43 01:48:48 39° 316° (NW) 01:53:54 145.825 MHz
Uribyol 2 25 Apr 02:03:44 02:04:37 10° 84° (E) 02:05:30 436.500 FM
Oscar 19 25 Apr 02:44:08 02:49:05 42° 98° (E) 02:53:59 437.125 CW, 437.150 USB
Sapphire 25 Apr 02:44:22 02:48:31 22° 329° (NNW) 02:52:40 437.095 MHz 1200 baud AX-25 AFSK
AO-27 25 Apr 02:44:32 02:48:42 24° 92° (E) 02:52:51 436.795 MHz FM
OPAL 25 Apr 02:44:53 02:49:52 60° 67° (ENE) 02:54:58 ?
ITAMSAT 1 25 Apr 02:53:26 02:57:52 28° 94° (E) 03:02:16 435.822 SSB
Oscar 16 25 Apr 02:53:27 02:58:33 53° 100° (E) 03:03:38 437.025 USB, Beacon 2401.1428
Gurwin Techsat 1B 25 Apr 03:12:08 03:15:08 15° 87° (E) 03:18:06 435.225 FM
PCSat 25 Apr 03:30:45 03:33:46 15° 341° (NNW) 03:36:48 145.825 MHz
KITSAT 1 25 Apr 03:36:57 03:45:05 77° 309° (NW) 03:53:16 435.175 FM
AO-Echo 25 Apr 03:37:12 03:41:53 53° 100° (E) 03:46:27 ?
Uribyol 2 25 Apr 03:39:51 03:45:03 71° 103° (ESE) 03:50:14 436.500 FM
TMSAT-1 25 Apr 03:55:23 03:59:45 25° 92° (E) 04:04:06 436.925 FM
Uosat F 25 Apr 04:04:19 04:04:49 10° 85° (E) 04:05:19 435.120 FM
AO-27 25 Apr 04:23:30 04:28:33 54° 291° (WNW) 04:33:35 436.795 MHz FM
Oscar 19 25 Apr 04:23:44 04:28:20 33° 297° (WNW) 04:32:54 437.125 CW, 437.150 USB
OPAL 25 Apr 04:25:17 04:29:10 22° 266° (W) 04:33:07 ?
JAS-1B 25 Apr 04:28:47 04:33:31 26° 93° (E) 04:38:27 435.800 - 435.900 CW/SSB
Sapphire 25 Apr 04:32:15 04:34:06 12° 355° (N) 04:35:58 437.095 MHz 1200 baud AX-25 AFSK
ITAMSAT 1 25 Apr 04:32:38 04:37:35 47° 293° (WNW) 04:42:31 435.822 SSB
Oscar 16 25 Apr 04:33:21 04:37:38 27° 299° (WNW) 04:41:54 437.025 USB, Beacon 2401.1428
Gurwin Techsat 1B 25 Apr 04:50:29 04:55:50 87° 286° (WNW) 05:01:09 435.225 FM
MaSat-1 25 Apr 04:52:22 04:54:13 15° 49° (NE) 04:56:13 437.345 MHz
RS-15 25 Apr 04:59:20 05:06:25 20° 98° (E) 05:13:22 29.354 - 29.394 USB, Beacon 29.352 USB
AO-Echo 25 Apr 05:16:40 05:20:21 23° 299° (WNW) 05:23:59 ?
PCSat 25 Apr 05:17:39 05:19:39 12° 7° (N) 05:21:39 145.825 MHz
Uribyol 2 25 Apr 05:20:17 05:24:03 21° 302° (WNW) 05:27:49 436.500 FM
AO-7 25 Apr 05:23:49 05:31:32 40° 97° (E) 05:39:13 29.400 - 29.500 MHz
KITSAT 1 25 Apr 05:34:46 05:41:50 31° 335° (NNW) 05:48:56 435.175 FM
TMSAT-1 25 Apr 05:34:50 05:39:59 53° 291° (WNW) 05:45:07 436.925 FM
STRAND 1 25 Apr 05:35:18 05:38:32 17° 56° (NE) 05:41:47 ?
Uosat F 25 Apr 05:39:30 05:44:31 72° 104° (ESE) 05:49:30 435.120 FM
AO-27 25 Apr 06:06:02 06:06:59 11° 311° (NW) 06:07:56 436.795 MHz FM
Sapphire 25 Apr 06:16:44 06:19:58 16° 22° (NNE) 06:23:12 437.095 MHz 1200 baud AX-25 AFSK
JAS-1B 25 Apr 06:19:07 06:24:36 52° 293° (WNW) 06:30:20 435.800 - 435.900 CW/SSB
MaSat-1 25 Apr 06:29:46 06:32:39 42° 243° (WSW) 06:36:01 437.345 MHz
Gurwin Techsat 1B 25 Apr 06:31:50 06:35:05 17° 305° (NW) 06:38:20 435.225 FM
PCSat 25 Apr 07:00:50 07:05:10 23° 33° (NNE) 07:09:29 145.825 MHz
RS-15 25 Apr 07:05:34 07:16:43 71° 121° (ESE) 07:27:34 29.354 - 29.394 USB, Beacon 29.352 USB
STRAND 1 25 Apr 07:11:59 07:17:06 86° 255° (WSW) 07:22:14 ?
AO-7 25 Apr 07:16:34 07:24:39 58° 298° (WNW) 07:32:45 29.400 - 29.500 MHz
TMSAT-1 25 Apr 07:17:57 07:18:47 10° 311° (NW) 07:19:37 436.925 FM
Uosat F 25 Apr 07:19:18 07:22:48 20° 303° (WNW) 07:26:19 435.120 FM
Hamsat 25 Apr 07:33:18 07:37:37 54° 100° (E) 07:41:54 145.90 MHz
KITSAT 1 25 Apr 07:33:46 07:40:05 24° 4° (N) 07:46:23 435.175 FM
SO-67 25 Apr 07:55:31 07:57:55 17° 92° (E) 08:00:18 435.3500 MHz FM
JAS-2 25 Apr 07:58:05 08:03:10 36° 97° (E) 08:08:43 435.800 - 435.900 CW/SSB, 435.910 FM
Sapphire 25 Apr 07:59:38 08:04:50 44° 45° (NE) 08:10:00 437.095 MHz 1200 baud AX-25 AFSK
PCSat 25 Apr 08:43:54 08:49:22 87° 55° (NE) 08:54:48 145.825 MHz
HO-68 25 Apr 08:48:17 08:49:07 10° 81° (E) 08:49:57 435.675 MHz FM
STRAND 1 25 Apr 08:54:48 08:57:05 13° 274° (W) 08:59:22 ?
Hamsat 25 Apr 09:10:05 09:13:15 20° 298° (WNW) 09:16:25 145.90 MHz
AO-7 25 Apr 09:10:35 09:15:49 19° 321° (NW) 09:21:04 29.400 - 29.500 MHz
RS-15 25 Apr 09:19:04 09:29:47 50° 329° (NNW) 09:40:21 29.354 - 29.394 USB, Beacon 29.352 USB
SO-67 25 Apr 09:27:58 09:31:14 37° 289° (WNW) 09:34:29 435.3500 MHz FM
KITSAT 1 25 Apr 09:30:30 09:38:01 39° 33° (NNE) 09:45:29 435.175 FM
Sapphire 25 Apr 09:43:14 09:48:14 39° 246° (WSW) 09:53:12 437.095 MHz 1200 baud AX-25 AFSK
JAS-2 25 Apr 09:43:17 09:48:21 41° 294° (WNW) 09:53:55 435.800 - 435.900 CW/SSB, 435.910 FM
Saudisat 1A 25 Apr 10:08:45 10:12:49 35° 119° (ESE) 10:16:53 436.775 MHz
PCSat 25 Apr 10:28:39 10:32:04 17° 255° (WSW) 10:35:29 145.825 MHz
HO-68 25 Apr 10:31:24 10:38:28 55° 101° (ESE) 10:45:30 435.675 MHz FM
Oscar 11 25 Apr 11:05:37 11:09:54 50° 100° (E) 11:14:09 145.825 FM, Beacon 2401.500 USB
FUNcube-1 25 Apr 11:15:13 11:18:41 23° 93° (E) 11:22:11 145.950 - 145.970 MHz USB
KITSAT 1 25 Apr 11:26:03 11:34:11 78° 237° (WSW) 11:42:13 435.175 FM
RS-15 25 Apr 11:35:25 11:45:15 35° 2° (N) 11:55:04 29.354 - 29.394 USB, Beacon 29.352 USB
Saudisat 1A 25 Apr 11:48:10 11:52:23 40° 319° (NW) 11:56:38 436.775 MHz
HO-68 25 Apr 12:19:29 12:25:58 38° 302° (WNW) 12:32:26 435.675 MHz FM
Oscar 19 25 Apr 12:28:30 12:31:36 16° 55° (NE) 12:34:43 437.125 CW, 437.150 USB
AO-27 25 Apr 12:32:14 12:33:06 10° 49° (NE) 12:33:59 436.795 MHz FM
Oscar 16 25 Apr 12:37:16 12:40:55 20° 57° (ENE) 12:44:36 437.025 USB, Beacon 2401.1428
ITAMSAT 1 25 Apr 12:40:04 12:41:56 12° 51° (NE) 12:43:48 435.822 SSB
Oscar 11 25 Apr 12:42:30 12:45:47 21° 298° (WNW) 12:49:04 145.825 FM, Beacon 2401.500 USB
FUNcube-1 25 Apr 12:51:13 12:55:16 42° 291° (WNW) 12:59:24 145.950 - 145.970 MHz USB
AO-Echo 25 Apr 13:17:25 13:20:48 18° 58° (ENE) 13:24:08 ?
KITSAT 1 25 Apr 13:23:01 13:28:18 19° 259° (WSW) 13:33:35 435.175 FM
Uribyol 2 25 Apr 13:23:50 13:28:03 26° 61° (ENE) 13:32:18 436.500 FM
Saudisat 1A 25 Apr 13:30:43 13:33:10 14° 342° (NNW) 13:35:37 436.775 MHz
ISS 25 Apr 13:43:07 13:45:38 20° 140° (SE) 13:48:11 145.800 FM
TMSAT-1 25 Apr 13:44:49 13:46:20 11° 50° (NE) 13:47:51 436.925 FM
RS-15 25 Apr 13:49:51 14:00:32 54° 34° (NE) 14:11:20 29.354 - 29.394 USB, Beacon 29.352 USB
Oscar 19 25 Apr 14:05:04 14:10:14 87° 74° (ENE) 14:15:27 437.125 CW, 437.150 USB
AO-27 25 Apr 14:06:30 14:11:32 54° 69° (ENE) 14:16:36 436.795 MHz FM
HO-68 25 Apr 14:10:11 14:11:44 11° 325° (NW) 14:13:17 435.675 MHz FM
SO-50 25 Apr 14:11:04 14:14:30 22° 114° (ESE) 14:17:57 436.795 FM
Oscar 16 25 Apr 14:14:36 14:19:45 74° 257° (WSW) 14:24:57 437.025 USB, Beacon 2401.1428
ITAMSAT 1 25 Apr 14:15:22 14:20:27 63° 70° (ENE) 14:25:35 435.822 SSB
Gurwin Techsat 1B 25 Apr 14:36:39 14:41:25 35° 64° (ENE) 14:46:13 435.225 FM
AO-7 25 Apr 14:37:43 14:43:43 23° 43° (NE) 14:49:44 29.400 - 29.500 MHz
OPAL 25 Apr 14:53:30 14:54:44 11° 87° (E) 14:55:57 ?
AO-Echo 25 Apr 14:53:54 14:59:03 79° 256° (WSW) 15:04:05 ?
Uribyol 2 25 Apr 15:02:14 15:07:16 53° 260° (W) 15:12:20 436.500 FM
Saudisat 1A 25 Apr 15:13:15 15:14:40 11° 6° (N) 15:16:05 436.775 MHz
JAS-1B 25 Apr 15:18:01 15:24:35 40° 64° (ENE) 15:30:17 435.800 - 435.900 CW/SSB
ISS 25 Apr 15:18:40 15:22:00 86° 157° (SSE) 15:25:23 145.800 FM
Uosat F 25 Apr 15:19:31 15:23:31 25° 60° (ENE) 15:27:31 435.120 FM
TMSAT-1 25 Apr 15:20:01 15:25:11 57° 70° (ENE) 15:30:23 436.925 FM
AO-27 25 Apr 15:47:13 15:51:23 24° 268° (W) 15:55:34 436.795 MHz FM
Oscar 19 25 Apr 15:47:31 15:50:18 15° 273° (W) 15:53:06 437.125 CW, 437.150 USB
SO-50 25 Apr 15:50:15 15:54:42 60° 314° (NW) 15:59:12 436.795 FM
ITAMSAT 1 25 Apr 15:56:33 16:00:24 21° 269° (W) 16:04:16 435.822 SSB
UOSAT-12 25 Apr 15:57:15 15:59:59 16° 110° (ESE) 16:02:45 437.025 FM, 437.400 FM
Oscar 16 25 Apr 15:58:40 16:00:02 11° 276° (W) 16:01:24 437.025 USB, Beacon 2401.1428
RS-15 25 Apr 16:02:36 16:13:18 64° 241° (WSW) 16:24:16 29.354 - 29.394 USB, Beacon 29.352 USB
Gurwin Techsat 1B 25 Apr 16:16:24 16:21:21 39° 263° (W) 16:26:20 435.225 FM
AO-7 25 Apr 16:27:02 16:35:16 74° 66° (ENE) 16:43:32 29.400 - 29.500 MHz
OPAL 25 Apr 16:29:18 16:34:33 71° 105° (ESE) 16:39:45 ?
AO-Echo 25 Apr 16:36:54 16:38:37 12° 274° (W) 16:40:19 ?
Saudisat 1A 25 Apr 16:52:23 16:55:53 22° 30° (NNE) 16:59:22 436.775 MHz
ISS 25 Apr 16:55:36 16:58:54 52° 359° (N) 17:02:13 145.800 FM
Uosat F 25 Apr 16:57:05 17:02:00 55° 259° (W) 17:06:56 435.120 FM
TMSAT-1 25 Apr 17:01:18 17:05:29 24° 268° (W) 17:09:42 436.925 FM
JAS-1B 25 Apr 17:08:14 17:15:15 45° 261° (W) 17:21:17 435.800 - 435.900 CW/SSB
